Miscellaneous Local Product
Issued by NWS Hastings, NE

Home | Current Version | Previous Version | Text Only | Print | Product List | Glossary Off
Versions: 1 2 3 4 5 6 7 8 9 10 11 12 13 14 15 16 17 18 19 20 21 22 23 24 25 26 27 28 29 30 31 32 33 34 35 36 37 38 39 40 41 42 43 44 45 46 47 48 49 50

000
AXUS43 KGID 240302
MISGRI

GID CWA HOURLY WEATHER ROUNDUP
NATIONAL WEATHER SERVICE HASTINGS NE
1000 PM CDT WED AUG 23 2017

NOTE: "FAIR" INDICATES FEW OR NO CLOUDS BELOW 12,000 FEET WITH NO
SIGNIFICANT WEATHER AND/OR OBSTRUCTIONS TO VISIBILITY.

...SOUTH CENTRAL NEBRASKA...

CITY           SKY/WX    TMP DP  RH WIND       PRES   REMARKS
GRAND ISLAND   CLEAR     68  56  65 S10       30.03R
HASTINGS       CLEAR     69  54  58 S8        30.05R
KEARNEY        CLEAR     64  56  75 SE9       30.04R
ORD            CLOUDY    69  56  62 S5        29.99S
YORK           CLEAR     68  59  73 S6        30.04R
AURORA         CLEAR     68  57  68 S9        30.04R
LEXINGTON      CLEAR     69  55  61 SE7       30.03R
HOLDREGE       CLEAR     64  53  68 SE7       30.04R
HEBRON         CLEAR     67  55  63 S5        30.04S

...NEBRASKA PANHANDLE...

CITY           SKY/WX    TMP DP  RH WIND       PRES   REMARKS
CHADRON        CLOUDY    78  51  38 S7        29.98R
ALLIANCE       PTCLDY    71  51  49 SW5       30.00R
SCOTTSBLUFF    MOCLDY    72  50  45 NE10      30.00F
SIDNEY         MOCLDY    71  53  52 NE9       30.06S

...WESTERN AND NORTH CENTRAL NEBRASKA...

CITY           SKY/WX    TMP DP  RH WIND       PRES   REMARKS
VALENTINE      CLEAR     79  59  50 S16       29.93R
AINSWORTH      CLEAR     73  56  56 S14       29.96S
ONEILL         CLEAR     68  59  72 S10       29.97S
BROKEN BOW     CLEAR     70  55  59 S8        30.01S
IMPERIAL       CLEAR     73  58  59 SE13      30.01R
NORTH PLATTE   CLEAR     64  56  75 E8        30.01R
MCCOOK         CLEAR     71  50  47 S8        30.02R

...EASTERN NEBRASKA...

CITY           SKY/WX    TMP DP  RH WIND       PRES   REMARKS
NORFOLK        CLEAR     68  60  75 S9        30.00S
SO SIOUX CITY  MOCLDY    68  62  81 E7        30.01R
TEKAMAH        CLEAR     63  60  90 S5        30.01S
COLUMBUS       CLEAR     65  60  84 S7        30.02S
ALBION         CLEAR     64  61  89 S5        30.01S
OMAHA EPPLEY   PTCLDY    71  57  61 SE9       30.03S
OFFUTT AFB     CLEAR     65  59  80 SE5       30.03R
MILLARD        CLEAR     69  60  72 SE3       30.03S
LINCOLN        CLEAR     73  58  59 SE9       30.04R
NEBRASKA CITY  CLEAR     65  62  91 S5        30.04S
BEATRICE       CLEAR     69  57  65 SE5       30.04R
FALLS CITY     CLEAR     66  59  78 SE3       30.03S

...NORTHERN KANSAS...

CITY           SKY/WX    TMP DP  RH WIND       PRES   REMARKS
GOODLAND       CLOUDY    71  62  73 S12       30.05R
HILL CITY      CLEAR     73  48  41 S8        30.04R
NORTON         CLEAR     68  45  42 SE7       30.03R
PHILLIPSBURG   CLEAR     70  50  49 SE6       30.02R
HAYS           CLEAR     65  50  58 SE8       30.04R
RUSSELL        CLEAR     70  50  49 SE9       30.03R
CONCORDIA      CLEAR     65  57  75 SE9       30.05R
SALINA         CLEAR     73  52  47 SE9       30.05R
TOPEKA         CLEAR     69  62  78 CALM      30.05S



USA.gov is the U.S. government's official web portal to all federal, state and local government web resources and services.